Location: Lansingburgh
(42.7845°N, 73.6696°W)
Time: 03:18:29
(UTC+00:00)

Nadezhda 3 Rocket - Pass Details

Date: 24 January 2020
Orbit: 957 x 999 km, 82.9° (Epoch: 16 February)

Event Time Altitude Azimuth Distance (km) Brightness Sun altitude
Rises 22:12:45 0° 353° (N) 3,693 6.9 -3.5°
Reaches altitude 10° 22:15:16 10° 355° (N) 2,747 6.2 -3.9°
Maximum altitude 22:21:35 77° 81° (E) 1,019 4.0 -5.0°
Drops below altitude 10° 22:27:55 10° 168° (SSE) 2,753 6.5 -6.1°
Sets 22:30:27 0° 170° (S) 3,701 7.2 -6.5°
